Location: Unspecified
(39.0670°S, 0.0000°E)
Time: 02:00:33
(UTC+00:00)

Envisat - Pass Details

Date: 05 July 2019
Orbit: 764 x 766 km, 98.1° (Epoch: 14 October)

Event Time Altitude Azimuth Distance (km) Brightness Sun altitude
Exits shadow 20:06:00 25° 292° (WNW) 1,515 4.9 -37.3°
Drops below altitude 10° 20:08:32 10° 313° (NW) 2,309 5.9 -37.7°
Sets 20:11:00 0° 322° (NW) 3,227 6.7 -38.2°
